Location: Unspecified
(0.0000°N, 0.0000°E)
Time: 01:22:35
(UTC+00:00)

Explorer 25 - Pass Details

Date: 09 March 2026
Orbit: 523 x 2264 km, 81.3° (Epoch: 14 April)

Event Time Altitude Azimuth Distance (km) Brightness Sun altitude
Rises 19:13:25 0° 190° (S) 5,837 12.7 -15.7°
Reaches altitude 10° 19:17:08 10° 191° (SSW) 4,788 12.3 -16.6°
Maximum altitude 19:29:40 69° 272° (W) 2,038 10.3 -19.7°
Drops below altitude 10° 19:39:12 10° 355° (N) 3,707 11.5 -22.1°
Sets 19:41:45 0° 357° (N) 4,481 11.9 -22.8°
